Date,TemperatureHighF,TemperatureAvgF,TemperatureLowF,DewpointHighF,DewpointAvgF,DewpointLowF,HumidityHigh,HumidityAvg,HumidityLow,PressureMaxIn,PressureMinIn,WindSpeedMaxMPH,WindSpeedAvgMPH,GustSpeedMaxMPH,PrecipitationSumIn
2013-10-8,68.0,63.1,60.0,-99.9,-99.9,-99.9,0,0,100,0.00,40.00,26,20,33,0.00
2013-10-9,73.0,63.8,59.0,-99.9,-99.9,-99.9,0,0,100,0.00,40.00,22,16,27,0.00
2013-10-10,71.0,61.1,56.0,-99.9,-99.9,-99.9,0,0,100,0.00,40.00,14,7,16,0.00
2013-10-11,71.0,62.9,56.0,-99.9,-99.9,-99.9,0,0,100,0.00,40.00,15,8,22,0.00
2013-10-12,67.0,59.0,57.0,-99.9,-99.9,-99.9,0,0,100,0.00,40.00,29,17,38,0.00
2013-10-13,63.0,53.2,47.0,-99.9,-99.9,-99.9,0,0,100,0.00,40.00,18,6,22,0.00
2013-10-14,61.0,54.0,49.0,-99.9,-99.9,-99.9,0,0,100,0.00,40.00,10,6,14,0.00
2013-10-15,58.0,55.7,53.0,-99.9,-99.9,-99.9,0,0,100,0.00,40.00,16,9,18,0.00
2013-10-16,56.0,50.5,48.0,-99.9,-99.9,-99.9,0,0,100,0.00,40.00,26,18,32,0.00
2013-10-17,55.0,48.4,45.0,-99.9,-99.9,-99.9,0,0,100,0.00,40.00,15,8,18,0.00
2013-10-18,52.0,48.3,43.0,-99.9,-99.9,-99.9,0,0,100,0.00,40.00,23,10,27,0.00
2013-10-19,56.0,45.0,42.0,-99.9,-99.9,-99.9,0,0,100,0.00,40.00,23,12,26,0.00
2013-10-20,52.0,44.7,40.0,-99.9,-99.9,-99.9,0,0,100,0.00,40.00,17,10,22,0.00
2013-10-21,48.0,42.6,36.0,-99.9,-99.9,-99.9,0,0,100,0.00,40.00,31,22,37,0.00
2013-10-22,47.0,41.6,38.0,-99.9,-99.9,-99.9,0,0,100,0.00,40.00,30,23,37,0.00
2013-10-23,46.0,40.9,38.0,-99.9,-99.9,-99.9,0,0,100,0.00,40.00,32,21,36,0.00
2013-10-24,49.0,41.7,37.0,-99.9,-99.9,-99.9,0,0,100,0.00,40.00,27,22,31,0.00
2013-10-25,50.0,45.1,40.0,-99.9,-99.9,-99.9,0,0,100,0.00,40.00,30,20,42,0.00
2013-10-26,52.0,46.1,42.0,-99.9,-99.9,-99.9,0,0,100,0.00,40.00,31,24,41,0.00
2013-10-27,52.0,45.0,41.0,-99.9,-99.9,-99.9,0,0,100,0.00,40.00,27,15,37,0.00
2013-10-28,45.0,36.5,33.0,-99.9,-99.9,-99.9,0,0,100,0.00,40.00,28,11,39,0.00
2013-10-29,43.0,38.1,33.0,-99.9,-99.9,-99.9,0,0,100,0.00,40.00,10,3,12,0.00
2013-10-30,53.0,48.2,43.0,-99.9,-99.9,-99.9,0,0,100,0.00,40.00,17,7,21,0.00
2013-10-31,57.0,53.1,51.0,-99.9,-99.9,-99.9,0,0,100,0.00,40.00,16,5,18,0.00